Location: Knowlton
(51.2333°N, 1.2667°E)
Time: 10:31:46
(UTC+00:00)

Cosmos 1980 - Pass Details

Date: 18 April 2021
Orbit: 838 x 848 km, 71.0° (Epoch: 05 May)

Event Time Altitude Azimuth Distance (km) Brightness Sun altitude
Rises 20:27:35 0° 329° (NNW) 3,419 8.2 -13.3°
Reaches altitude 10° 20:30:02 10° 331° (NNW) 2,481 7.3 -13.6°
Maximum altitude 20:35:45 85° 59° (ENE) 859 3.7 -14.3°
Enters shadow 20:39:45 21° 148° (SSE) 1,839 4.9 -14.8°
